Date String (YYYY-MM-DD hh:mm:ss) UTC,Instrument flags,absolute air pressure of the measurement (hPa),sample flow rate (lpm),inlet stack bypass flow (lpm),air temperature of the measurement (°C),ambient temperature measured by the external sensor (°C),aerosol sample conditioner tube jacket temperature (°C),OPC LED temperature (°C),internal box temperature (°C),relative humidity of the measurement (%),span deviation,mass concentration of particles derived from Lorenz-Mie calculation of OPC scattering (μg/m³),mass concentration of particles derived from Lorenz-Mie calculation of OPC scattering (μg/m³),mass concentration of particles derived from Lorenz-Mie calculation of OPC scattering (μg/m³)
DateTimeUTC,F1_M11,P_M11,Q1_M11,Q2_M11,T1_M11,T2_M11,T3_M11,T4_M11,T5_M11,U1_M11,ZSPAN_M11,X0_M11,X2_M11,X1_M11
2023-09-26 19:00:00,SystemResetWarning,0834.7,5.01,000.00,028.0,024.3,000.0,036.4,029.6,15.0,0000.0,0015.12,0004.87,0003.80
2023-09-26 19:01:00,SystemResetWarning,0834.9,5.00,000.00,027.9,024.6,000.0,036.4,029.5,15.3,0000.0,0014.99,0004.82,0003.78
2023-09-26 19:02:00,SystemResetWarning,0834.9,5.00,000.00,027.9,024.9,000.0,036.4,029.4,15.2,0000.0,0014.78,0004.79,0003.78
2023-09-26 19:03:00,SystemResetWarning,0834.9,5.00,000.00,027.9,025.4,000.0,036.4,029.5,15.2,0000.0,0015.45,0004.77,0003.78
2023-09-26 19:04:00,SystemResetWarning,0835.0,4.99,000.00,027.9,025.7,000.0,036.4,029.6,14.9,0000.0,0014.73,0004.72,0003.78
2023-09-26 19:05:00,SystemResetWarning,0835.1,5.00,000.00,027.9,026.1,000.0,036.4,029.7,15.1,0000.0,0013.95,0004.68,0003.77
2023-09-26 19:06:00,SystemResetWarning,0835.0,5.01,000.00,028.0,026.4,000.0,036.4,029.7,15.5,0000.0,0014.04,0004.66,0003.76
2023-09-26 19:07:00,SystemResetWarning,0835.0,5.01,000.00,028.0,026.6,000.0,036.4,029.8,15.8,0000.0,0013.43,0004.69,0003.76
2023-09-26 19:08:00,SystemResetWarning,0834.7,5.00,000.00,028.0,026.9,000.0,036.4,029.8,15.5,0000.0,0013.24,0004.71,0003.77
2023-09-26 19:09:00,SystemResetWarning,0834.8,4.99,000.00,028.1,027.0,000.0,036.5,029.9,15.9,0000.0,0013.28,0004.68,0003.77
2023-09-26 19:10:00,SystemResetWarning,0834.5,5.00,000.00,028.1,027.0,000.0,036.5,030.0,16.7,0000.0,0013.07,0004.69,0003.78
2023-09-26 19:11:00,SystemResetWarning,0834.5,4.99,000.00,028.1,025.5,000.0,036.4,029.9,16.5,0000.0,0013.04,0004.73,0003.78
2023-09-26 19:12:00,SystemResetWarning,0834.5,5.00,000.00,028.1,024.3,000.0,036.4,029.7,15.3,0000.0,0013.24,0004.78,0003.79
2023-09-26 19:13:00,SystemResetWarning,0834.5,5.01,000.00,028.0,024.4,000.0,036.3,029.6,15.3,0000.0,0014.25,0004.79,0003.79
2023-09-26 19:14:00,SystemResetWarning,0834.5,5.00,000.00,027.9,024.7,000.0,036.3,029.5,15.4,0000.0,0014.02,0004.81,0003.79
2023-09-26 19:15:00,SystemResetWarning,0834.5,4.99,000.00,027.9,025.1,000.0,036.3,029.4,15.2,0000.0,0014.50,0004.83,0003.79
2023-09-26 19:16:00,SystemResetWarning,0834.4,5.00,000.00,027.9,025.5,000.0,036.4,029.5,15.3,0000.0,0017.13,0004.88,0003.80
2023-09-26 19:17:00,SystemResetWarning,0834.4,5.00,000.00,027.9,025.8,000.0,036.4,029.6,15.9,0000.0,0017.21,0004.88,0003.80
2023-09-26 19:18:00,SystemResetWarning,0834.4,5.01,000.00,027.9,026.2,000.0,036.4,029.6,17.2,0000.0,0016.35,0004.86,0003.81
2023-09-26 19:19:00,SystemResetWarning,0834.4,4.99,000.00,027.9,026.4,000.0,036.4,029.7,17.4,0000.0,0016.18,0004.84,0003.79
2023-09-26 19:20:00,SystemResetWarning,0834.3,5.00,000.00,028.0,026.7,000.0,036.4,029.8,17.4,0000.0,0016.27,0004.85,0003.78
2023-09-26 19:21:00,SystemResetWarning,0834.3,5.00,000.00,028.0,026.9,000.0,036.4,029.9,18.4,0000.0,0016.19,0004.87,0003.78
2023-09-26 19:22:00,SystemResetWarning,0834.3,4.99,000.00,028.1,027.0,000.0,036.4,029.9,18.4,0000.0,0016.51,0004.83,0003.78
2023-09-26 19:23:00,SystemResetWarning,0834.3,4.99,000.00,028.1,026.0,000.0,036.4,029.9,18.8,0000.0,0017.54,0004.83,0003.78
2023-09-26 19:24:00,SystemResetWarning,0834.5,5.01,000.00,028.0,024.4,000.0,036.4,029.7,18.6,0000.0,0018.12,0004.84,0003.79
2023-09-26 19:25:00,SystemResetWarning,0834.5,5.01,000.00,028.0,024.2,000.0,036.3,029.6,18.2,0000.0,0017.28,0004.84,0003.78
2023-09-26 19:26:00,SystemResetWarning,0834.3,5.00,000.00,027.9,024.5,000.0,036.3,029.4,18.3,0000.8,0016.91,0004.86,0003.79
2023-09-26 19:27:00,SystemResetWarning,0834.5,5.00,000.00,027.8,024.9,000.0,036.3,029.4,18.2,0000.0,0014.99,0004.83,0003.78
2023-09-26 19:28:00,SystemResetWarning,0834.6,5.01,000.00,027.8,025.3,000.0,036.3,029.5,18.4,0001.3,0013.82,0004.82,0003.78
2023-09-26 19:29:00,SystemResetWarning,0834.3,4.99,000.00,027.8,025.7,000.0,036.3,029.5,18.5,0002.2,0015.39,0004.84,0003.78
2023-09-26 19:30:00,SystemResetWarning,0834.2,5.00,000.00,027.9,026.1,000.0,036.3,029.6,18.3,0000.1,0016.16,0004.85,0003.77
2023-09-26 19:31:00,SystemResetWarning,0834.2,5.01,000.00,027.9,026.4,000.0,036.3,029.7,18.3,0001.0,0016.04,0004.83,0003.77
2023-09-26 19:32:00,SystemResetWarning,0834.6,5.01,000.00,028.0,026.6,000.0,036.4,029.8,18.8,0000.0,0016.23,0004.82,0003.76
2023-09-26 19:33:00,SystemResetWarning,0834.4,4.99,000.00,028.0,026.8,000.0,036.4,029.8,18.9,0002.1,0016.59,0004.84,0003.77
2023-09-26 19:34:00,SystemResetWarning,0834.4,4.99,000.00,028.1,026.8,000.0,036.4,029.9,18.7,0000.0,0016.26,0004.81,0003.77
2023-09-26 19:35:00,SystemResetWarning,0834.3,4.99,000.00,028.0,025.5,000.0,036.4,029.8,18.4,0000.0,0015.02,0004.81,0003.77
2023-09-26 19:36:00,SystemResetWarning,0834.4,5.02,000.00,027.9,024.2,000.0,036.3,029.6,18.5,0000.0,0015.21,0004.85,0003.79
2023-09-26 19:37:00,SystemResetWarning,0834.4,5.00,000.00,027.9,024.3,000.0,036.3,029.5,18.0,0000.0,0015.63,0004.88,0003.80
2023-09-26 19:38:00,SystemResetWarning,0834.6,5.00,000.00,027.8,024.7,000.0,036.3,029.4,18.1,0000.0,0015.60,0004.90,0003.80
2023-09-26 19:39:00,SystemResetWarning,0834.4,5.00,000.00,027.8,025.1,000.0,036.3,029.4,18.4,0000.0,0016.22,0004.92,0003.81
2023-09-26 19:40:00,SystemResetWarning,0834.3,5.00,000.00,027.8,025.5,000.0,036.3,029.4,18.0,0000.0,0014.94,0004.96,0003.82
2023-09-26 19:41:00,SystemResetWarning,0834.4,5.00,000.00,027.8,025.8,000.0,036.3,029.5,18.0,0000.0,0014.89,0004.99,0003.86
2023-09-26 19:42:00,SystemResetWarning,0834.4,4.99,000.00,027.8,026.2,000.0,036.3,029.6,17.7,0000.0,0014.95,0005.06,0003.88
2023-09-26 19:43:00,SystemResetWarning,0834.4,4.99,000.00,027.9,026.4,000.0,036.3,029.7,17.6,0000.0,0015.14,0005.10,0003.89
2023-09-26 19:44:00,SystemResetWarning,0834.4,5.01,000.00,027.9,026.7,000.0,036.3,029.7,17.8,0000.0,0014.13,0005.11,0003.89
2023-09-26 19:45:00,SystemResetWarning,0834.4,5.00,000.00,028.0,026.9,000.0,036.4,029.8,18.1,0000.0,0013.81,0005.11,0003.90
2023-09-26 19:46:00,SystemResetWarning,0834.4,4.99,000.00,028.0,027.0,000.0,036.4,029.9,17.4,0000.0,0013.94,0005.10,0003.91
2023-09-26 19:47:00,SystemResetWarning,0834.7,4.98,000.00,028.0,026.0,000.0,036.4,029.8,17.3,0000.0,0014.09,0005.09,0003.91
2023-09-26 19:48:00,SystemResetWarning,0834.3,5.01,000.00,028.0,024.4,000.0,036.3,029.6,17.6,0000.0,0014.96,0005.14,0003.90
2023-09-26 19:49:00,SystemResetWarning,0834.2,5.00,000.00,027.9,024.2,000.0,036.3,029.6,17.7,0000.0,0015.99,0005.15,0003.91
2023-09-26 19:50:00,SystemResetWarning,0834.2,5.01,000.00,027.8,024.5,000.0,036.2,029.4,17.7,0000.0,0016.47,0005.13,0003.91
2023-09-26 19:51:00,SystemResetWarning,0834.2,4.99,000.00,027.8,024.9,000.0,036.2,029.4,17.5,0000.0,0016.38,0005.07,0003.90
2023-09-26 19:52:00,SystemResetWarning,0834.2,5.00,000.00,027.8,025.3,000.0,036.2,029.4,17.4,0000.0,0015.70,0005.04,0003.88
2023-09-26 19:53:00,SystemResetWarning,0834.1,5.00,000.00,027.8,025.7,000.0,036.2,029.5,17.4,0000.3,0015.98,0005.02,0003.87
2023-09-26 19:54:00,SystemResetWarning,0834.1,5.01,000.00,027.8,026.1,000.0,036.3,029.6,17.4,0000.0,0016.00,0005.03,0003.88
2023-09-26 19:55:00,SystemResetWarning,0834.1,5.00,000.00,027.9,026.4,000.0,036.3,029.6,17.6,0000.0,0016.72,0005.05,0003.90
2023-09-26 19:56:00,SystemResetWarning,0834.1,5.00,000.00,027.9,026.6,000.0,036.3,029.7,17.6,0000.0,0018.98,0005.11,0003.91
2023-09-26 19:57:00,SystemResetWarning,0834.1,5.00,000.00,028.0,026.8,000.0,036.3,029.8,17.4,0000.0,0020.38,0005.24,0003.92
2023-09-26 19:58:00,SystemResetWarning,0834.1,5.00,000.00,028.0,027.0,000.0,036.4,029.9,17.3,0000.0,0020.26,0005.31,0003.93
2023-09-26 19:59:00,SystemResetWarning,0834.1,4.99,000.00,028.1,026.4,000.0,036.4,029.9,17.0,0000.0,0019.37,0005.30,0003.95
